Location: Unspecified
(41.5516°N, 88.1098°W)
Time: 02:06:25
(UTC-05:00)

Okean 3 - Visible Passes

Search period start: 24 May 2015 00:00
Search period end: 03 June 2015 00:00
Orbit: 581 x 605 km, 82.5° (Epoch: 24 May)

Date Brightness Start Highest point End Pass type
(mag) Time Alt. Az. Time Alt. Az. Time Alt. Az.
24 May 6.1 04:22:35 10° NNE 04:26:01 23° ENE 04:29:30 10° SE visible
25 May 5.3 04:31:24 10° N 04:35:19 35° ENE 04:39:14 10° SE visible
26 May 4.4 04:40:21 10° N 04:44:34 54° E 04:48:43 10° SSE visible
27 May 3.6 04:49:27 10° N 04:53:45 86° E 04:57:59 10° S visible
28 May 6.6 03:23:38 10° NE 03:24:59 12° ENE 03:26:35 10° E visible
29 May 6.3 03:31:36 10° NNE 03:34:24 17° ENE 03:37:18 10° ESE visible
30 May 5.7 03:40:12 10° NNE 03:43:44 25° ENE 03:47:18 10° SE visible
31 May 4.9 03:49:01 10° N 03:53:00 38° ENE 03:56:59 10° SSE visible
01 Jun 4.0 03:58:00 10° N 04:02:13 60° E 04:06:23 10° SSE visible
02 Jun 3.4 04:07:06 10° N 04:11:23 86° W 04:15:35 10° S visible
